SCP
0 -0 -0 -0 0 0 0 0 0 0 0 0 0 0 0 0 0 0 0 0 0 0 0 1 1 0 0 0 0 0 0 0 0 0 0 0 0 0 0 0 0 0 0 0 0 0 0 0 0
0 0 -0 0 0 0 0 0 0 0 0 0 0 0 0 0 0 0 0 0 0 0 0 0 0 1 1 1 1 1 0 0 0 0 0 0 0 0 0 0 0 0 0 0 0 0 0 0 0
0 0 0 0 0 0 0 0 0 -0 0 0 0 0 0 0 0 0 0 0 0 0 0 0 0 1 1 1 1 1 0 0 0 0 0 0 0 0 0 0 0 0 0 0 0 0 0 0 0
0 0 0 0 0 0 0 0 0 0 -0 0 0 0 0 0 0 0 0 0 0 0 0 0 1 1 1 1 1 1 0 0 0 0 0 0 0 0 0 0 0 0 0 0 0 0 0 0 0
0 0 0 0 0 0 0 0 -0 0 0 0 0 0 0 0 0 0 0 0 0 0 0 0 1 0 1 1 1 1 1 1 0 0 0 0 0 0 0 0 0 0 0 0 0 0 0 0 0
0 0 0 0 0 0 0 0 0 0 0 0 0 0 0 0 0 0 0 0 0 0 0 0 1 1 1 1 1 2 2 1 1 1 0 0 0 0 0 0 0 0 0 0 0 0 0 0 0
0 0 0 0 0 0 0 0 0 0 0 0 0 0 0 0 0 0 0 0 0 0 0 0 1 1 1 2 2 2 2 2 1 1 0 0 0 0 0 0 0 0 0 0 0 0 0 0 0
0 0 0 0 0 0 0 0 0 0 0 0 0 0 0 0 0 0 0 0 0 0 0 0 1 1 2 2 2 2 2 1 1 0 0 0 0 0 0 0 0 0 0 0 0 0 0 0 0
0 0 0 0 0 0 0 0 0 0 0 0 0 0 0 0 0 0 0 0 0 0 0 0 0 0 1 1 1 1 1 0 0 0 0 0 0 0 0 0 0 0 0 0 0 -0 0 0 0
0 0 0 0 0 0 0 0 0 0 0 0 0 0 0 0 0 0 0 0 0 0 0 0 0 0 0 0 0 0 0 0 0 0 0 0 0 0 0 0 0 0 0 0 0 0 -0 0 0
0 0 0 0 0 0 0 -0 0 0 0 0 0 0 0 0 0 0 0 0 0 0 0 0 0 0 0 0 0 0 0 0 0 0 0 0 0 0 0 0 0 0 0 0 0 0 0 0 0
0 0 0 0 0 0 0 0 0 0 0 0 0 0 0 0 0 0 0 0 0 0 0 0 0 0 0 0 0 0 0 0 0 0 0 0 0 0 0 0 0 0 0 0 0 0 0 0 0
0 0 0 0 0 0 0 0 0 0 0 0 0 0 0 0 0 0 0 0 0 0 0 0 0 0 0 0 0 0 0 0 0 0 0 0 0 0 0 0 0 0 0 0 0 0 0 0 0
0 0 0 0 0 0 0 0 0 0 0 0 0 0 0 0 -0 0 0 0 0 0 0 0 0 0 0 0 0 0 0 0 0 0 0 0 0 0 0 0 0 0 0 0 0 0 0 0 0
0 0 0 0 0 0 0 0 -0 0 0 0 0 0 0 -0 0 0 0 0 0 0 0 0 0 0 0 0 0 0 0 0 0 0 0 0 0 0 0 0 0 0 0 0 0 0 0 0 0
0 0 0 0 0 0 0 -0 0 0 0 -0 -0 0 0 0 0 0 0 0 0 0 0 0 0 0 0 0 0 0 0 0 0 0 0 0 0 0 0 0 0 0 0 0 0 0 0 0 0
0 0 0 -0 0 0 0 -0 -0 -0 -0 0 0 -0 0 -0 0 0 0 0 0 0 0 0 0 0 0 0 0 0 0 0 0 0 0 0 0 0 0 0 0 0 0 0 0 0 0 0 0
0 0 0 -0 0 0 0 -0 -0 0 0 -0 -0 0 0 0 0 0 0 0 0 0 0 0 0 0 0 0 0 0 0 0 0 0 0 0 0 0 0 0 0 0 0 0 0 0 0 0 0
0 0 0 0 0 0 0 -0 0 0 -0 0 0 0 -0 0 0 0 0 0 0 0 0 0 0 0 0 0 0 0 0 0 0 0 0 0 0 0 0 0 0 0 0 0 0 0 0 0 0
0 0 -0 0 0 -0 0 0 0 0 0 0 0 -0 0 0 0 0 0 0 0 0 0 0 0 0 0 0 0 0 0 0 0 0 0 0 0 0 0 0 0 0 0 0 0 0 0 0 0
0 0 0 -0 0 -0 0 -0 0 0 -0 0 0 0 0 0 0 0 0 0 0 0 0 0 0 0 0 0 0 0 0 0 0 0 0 0 0 0 0 0 0 0 -0 0 -0 0 0 0 0
0 0 0 0 0 0 0 0 0 0 -0 0 -0 0 -0 0 0 0 0 0 0 0 0 0 0 0 0 0 0 0 0 0 0 0 0 0 0 0 0 0 -0 -0 0 0 0 0 0 0 0
0 0 0 0 0 0 0 0 -0 0 0 0 -0 0 0 0 0 0 0 0 0 0 0 0 0 0 0 0 0 0 0 0 0 0 0 0 0 -0 0 -0 -0 0 -0 0 0 0 0 0 0
0 0 0 0 0 -0 0 0 -0 -0 -0 0 0 0 0 0 0 0 0 0 0 0 0 0 0 0 0 0 0 0 0 0 0 0 0 0 0 -0 0 0 0 -0 -0 0 0 0 0 0 0
0 0 0 0 0 0 0 0 0 0 0 0 0 -0 -0 0 0 0 0 0 0 0 0 0 0 0 0 0 0 0 0 0 0 0 0 0 -0 -0 -0 -0 -0 0 0 0 0 0 0 0 0
0 0 0 0 0 0 0 0 -0 0 0 0 -0 -0 -0 0 0 0 0 0 0 0 0 0 0 0 0 0 0 0 0 0 0 0 0 -0 -0 0 -0 -0 -0 0 0 0 0 0 0 0 0
0 0 0 0 0 0 0 0 0 0 0 0 -0 -0 -0 0 0 0 0 0 0 0 0 0 0 0 0 0 0 0 0 0 0 0 -0 0 -0 0 0 -0 -0 0 0 0 0 0 0 0 0
0 0 0 0 0 0 0 0 -0 0 0 0 -0 -0 -0 0 0 0 0 0 0 0 0 0 0 0 0 0 0 0 0 0 0 0 0 0 -0 0 -0 -0 0 0 0 0 0 0 0 0 0
0 0 0 0 0 0 0 0 0 0 0 -0 -0 -0 -0 0 0 0 0 0 0 -0 0 0 0 0 0 0 0 0 0 0 0 0 0 0 0 0 0 0 0 0 0 0 0 0 0 0 0
0 0 0 0 0 0 0 0 0 0 0 -0 -0 -0 0 0 0 0 0 0 0 -0 0 0 0 0 0 0 0 0 0 0 0 0 0 0 0 0 0 -0 -0 0 0 0 0 0 0 0 0
Wind_Speed_500mb
10 10 5 2 6 8 8 11 6 12 7 3 6 8 11 5 9 8 26 28 30 37 40 40 31 21 14 13 13 16 18 20 22 23 24 23 25 24 25 28 29 28 27 23 19 21 27 29 34
10 9 2 5 7 2 9 9 12 16 14 6 12 16 2 3 10 14 35 24 24 19 22 28 25 21 17 17 18 19 22 24 26 27 27 29 25 28 28 29 31 33 31 29 25 22 24 28 31
12 11 2 6 6 9 9 9 11 34 36 18 3 4 6 6 12 9 13 26 25 19 13 12 20 24 21 21 21 23 24 26 29 30 29 32 30 32 29 28 31 35 31 30 30 29 26 27 30
11 5 4 6 15 13 10 23 34 21 43 10 18 5 10 15 11 14 19 27 24 18 16 16 24 26 22 19 20 21 24 24 28 28 30 33 35 36 34 35 35 35 37 35 34 34 37 32 31
16 4 2 5 12 10 13 36 40 10 9 6 26 12 11 26 21 21 29 28 21 18 21 23 25 23 19 17 17 20 21 24 27 23 25 32 34 38 41 41 40 41 41 39 39 38 38 39 35
8 3 1 8 10 8 14 48 25 15 17 7 6 18 13 25 39 32 35 27 25 18 26 28 26 22 21 20 25 30 29 29 25 22 22 27 28 34 43 46 45 44 43 44 44 43 42 41 40
10 7 9 8 18 15 13 12 9 13 17 16 16 15 11 37 44 40 41 31 24 31 28 26 28 24 23 25 30 35 33 32 26 22 23 25 23 25 29 34 42 48 49 50 50 48 48 47 43
10 8 7 10 9 22 17 8 23 29 29 15 27 9 14 40 48 51 42 35 29 36 33 29 30 30 29 32 36 34 32 31 25 25 26 29 28 29 30 27 32 37 40 46 47 47 49 49 48
15 4 12 14 12 16 18 8 45 28 26 27 24 40 40 24 56 54 48 45 41 39 37 36 35 35 32 37 34 32 36 30 31 30 30 29 30 32 28 27 27 30 31 31 36 41 44 46 50
17 10 19 18 14 15 38 16 48 28 48 42 28 30 40 33 67 65 61 56 48 45 47 45 43 39 37 34 33 34 27 28 33 32 31 30 30 33 27 25 25 26 30 31 30 32 40 44 48
20 25 41 36 49 35 33 54 52 24 25 54 52 38 35 48 73 72 66 54 43 44 54 55 49 42 38 31 30 23 16 19 24 28 29 31 34 36 29 25 23 21 23 33 30 27 34 43 44
10 31 53 65 69 41 31 55 45 58 58 78 79 43 37 60 73 75 68 59 52 58 61 59 52 44 36 29 22 14 15 15 15 21 28 36 39 31 30 27 24 26 24 26 29 26 29 37 41
12 28 52 55 57 59 58 48 46 65 78 84 70 42 42 64 63 68 64 60 56 67 67 63 56 45 33 22 15 12 15 14 17 22 28 33 34 34 29 30 25 22 21 25 30 30 30 36 40
24 26 40 38 53 57 48 42 42 56 69 73 54 47 49 66 67 73 75 70 69 69 74 67 54 39 26 18 13 14 13 14 15 19 25 31 31 33 32 32 26 23 24 24 27 29 29 33 35
30 27 34 27 36 43 52 32 43 64 65 69 63 50 55 68 74 79 76 80 75 73 67 62 47 31 20 15 14 13 13 16 18 21 24 26 30 32 33 29 27 23 24 25 25 30 30 35 36
8 6 14 12 31 38 17 53 38 73 62 66 64 66 59 74 79 85 85 82 76 72 64 51 36 23 16 13 12 14 18 21 23 21 21 25 26 30 31 29 28 25 26 24 23 32 32 38 36
4 28 31 43 22 12 14 29 20 54 48 52 70 81 62 77 89 91 91 81 79 71 58 46 29 18 13 10 11 17 19 18 20 21 24 27 26 26 29 29 26 27 24 23 23 35 32 39 39
20 16 12 33 2 17 27 25 34 58 42 52 62 72 61 81 89 85 86 78 76 65 53 37 24 17 12 8 10 15 13 19 23 24 26 28 27 22 26 27 25 25 22 23 28 35 31 36 34
16 15 18 16 8 13 16 18 30 37 30 42 60 64 62 74 60 52 73 72 76 63 50 33 23 16 10 6 6 11 19 23 24 23 25 23 25 19 22 24 25 23 20 19 34 34 33 36 30
18 19 34 37 17 13 18 27 31 25 27 37 52 64 52 44 36 39 58 73 77 63 42 28 21 15 9 4 5 15 22 29 27 21 18 19 25 15 17 22 21 19 18 21 41 39 35 33 30
36 35 30 38 4 12 15 28 24 31 15 42 42 39 35 46 47 49 69 79 69 54 36 24 20 13 9 1 7 15 22 21 18 11 9 17 14 8 13 22 19 18 17 23 39 38 35 34 33
37 32 42 35 11 11 8 10 10 15 21 15 37 28 35 40 39 52 78 75 64 43 28 24 18 11 10 0 9 15 19 23 19 11 9 13 10 5 12 17 16 19 20 27 31 34 34 34 38
36 22 19 20 11 8 18 7 14 8 15 21 22 28 26 27 42 62 79 70 51 34 27 22 16 12 11 3 10 15 16 21 21 16 11 10 7 8 14 17 21 20 24 24 30 31 30 31 38
14 7 4 9 8 23 38 13 11 14 16 14 8 10 19 39 51 65 69 58 43 32 27 22 14 14 12 3 10 9 16 20 21 20 16 14 6 12 19 20 19 20 25 27 29 28 30 31 32
15 14 4 6 9 14 15 11 30 14 18 18 17 20 34 45 57 68 71 60 46 38 31 22 15 16 12 4 10 9 13 16 20 23 16 7 2 14 23 20 20 17 21 25 29 29 28 30 33
29 28 12 12 8 9 13 13 15 16 23 37 48 28 47 52 57 69 71 57 45 38 34 21 19 14 10 3 8 7 9 15 18 23 15 9 8 12 23 22 23 16 20 21 27 24 22 24 25
17 31 25 5 5 3 8 14 19 4 10 12 19 42 51 58 63 69 66 54 44 39 34 20 21 13 8 3 4 4 8 15 18 18 12 8 8 12 20 24 25 21 21 23 24 24 23 27 29
21 20 16 10 10 9 9 7 12 7 11 6 15 25 46 54 61 67 66 55 40 36 28 22 18 12 8 3 3 3 8 14 16 16 11 10 8 8 17 25 30 23 24 24 24 24 23 24 26
15 15 9 14 11 10 4 12 14 18 17 22 18 40 59 64 65 71 66 52 39 39 33 26 26 21 13 3 4 0 6 10 14 17 7 7 10 11 15 25 30 27 24 24 22 20 24 21 24
27 24 21 18 12 12 7 14 9 18 20 27 26 51 59 61 64 72 63 53 48 46 38 29 30 24 13 4 6 4 5 8 11 18 9 12 13 16 18 23 24 26 22 21 20 23 22 24 25
Wind_Direction_500mb
139 134 152 15 55 60 275 263 246 284 288 229 219 178 210 114 162 212 158 173 173 181 185 192 202 207 232 242 270 293 295 289 280 273 265 259 259 257 270 278 283 283 283 277 270 263 252 250 246
153 146 86 92 93 85 259 256 249 237 264 240 147 128 287 184 163 160 154 177 164 168 192 198 208 214 221 239 259 284 293 286 285 277 269 257 257 255 260 268 275 276 273 276 273 257 258 250 242
176 169 344 104 140 202 229 238 273 294 314 169 114 232 273 237 191 201 182 180 170 190 196 209 210 213 229 251 278 293 297 296 287 280 275 269 275 272 272 267 266 268 264 262 266 268 264 257 245
171 159 116 114 236 261 242 282 275 276 289 236 177 160 235 178 194 204 193 178 179 196 212 211 211 219 236 250 276 296 301 306 298 287 273 274 281 278 277 274 270 256 259 256 258 259 256 258 255
164 162 75 238 242 251 251 269 294 257 245 187 169 195 238 210 209 209 196 185 197 205 211 210 217 229 244 261 282 290 288 296 302 287 279 279 282 279 275 271 267 260 260 257 255 252 253 252 250
164 127 81 243 227 218 267 276 280 276 310 165 221 164 211 215 209 207 198 198 200 221 210 215 218 231 252 257 288 295 291 296 299 292 283 284 285 281 272 266 262 259 257 255 253 250 248 248 247
147 102 230 248 276 293 237 276 241 333 288 231 205 160 233 224 213 212 201 200 209 216 223 218 220 227 232 252 274 282 288 289 289 284 290 297 296 298 289 273 266 262 257 256 253 248 246 244 244
197 121 266 243 238 280 220 276 294 305 293 314 210 207 236 241 197 199 198 205 212 218 223 221 216 223 230 258 267 272 277 285 277 272 284 294 295 300 296 280 270 266 258 254 253 254 246 241 239
203 101 253 239 190 252 273 348 303 312 284 300 223 237 262 237 193 195 198 204 213 219 223 221 223 229 237 252 256 268 282 274 263 265 275 283 290 302 294 292 280 266 255 260 264 243 238 237 235
179 168 236 219 202 248 288 276 289 312 306 293 271 256 253 221 196 201 207 209 217 222 222 224 227 231 241 244 256 278 270 269 263 267 274 276 286 303 290 297 285 273 260 253 263 249 237 234 232
190 216 236 271 251 247 274 288 292 279 283 280 279 283 247 206 201 208 214 218 226 228 224 228 227 230 232 244 274 281 283 281 278 280 282 283 289 295 283 288 289 277 272 254 256 256 235 231 226
227 228 239 247 263 272 264 278 285 286 277 285 287 280 236 203 207 211 215 217 225 227 225 225 220 223 231 256 275 287 294 291 299 300 292 285 283 278 269 274 286 268 266 263 254 250 236 231 226
201 245 249 261 274 274 280 270 267 279 284 291 283 256 235 218 223 224 221 220 226 228 225 223 218 219 234 256 276 280 297 299 306 305 294 286 273 273 271 269 281 274 263 268 254 244 236 223 224
259 267 269 269 263 269 266 273 280 279 287 286 274 255 235 229 228 220 218 222 225 228 224 218 213 218 235 255 277 288 300 301 300 305 300 286 278 270 265 266 270 273 270 273 255 236 229 218 207
275 284 282 264 263 260 274 282 268 279 279 281 281 268 253 238 226 224 225 224 226 226 208 204 208 218 236 265 285 309 308 301 295 306 311 305 286 272 264 259 258 270 267 267 250 223 218 205 205
2 306 268 256 251 259 225 267 276 280 276 277 281 281 259 237 231 229 229 226 223 213 200 203 206 219 244 269 299 308 306 301 295 295 315 326 301 277 262 255 254 263 263 263 247 215 209 199 205
278 260 268 275 235 253 183 277 269 282 278 276 281 280 264 238 231 229 229 227 221 207 201 200 205 222 246 264 284 300 305 305 297 285 306 317 313 282 259 252 251 251 258 257 232 206 205 201 205
213 230 242 250 327 215 254 259 273 279 279 286 284 285 262 233 233 231 229 225 213 200 203 202 205 220 230 246 284 304 302 308 303 295 299 304 314 292 253 241 241 245 255 250 211 199 203 203 199
222 223 248 276 243 250 245 262 275 280 294 272 272 271 263 237 242 238 232 223 197 196 193 197 208 208 202 227 281 317 319 319 311 296 294 299 313 299 244 242 233 243 252 245 198 191 197 195 194
223 242 258 280 274 228 271 262 268 283 277 265 264 268 252 253 258 228 212 195 192 189 189 192 201 197 186 203 323 333 334 326 313 293 286 296 305 278 251 224 221 236 232 206 189 190 192 197 188
223 228 246 246 353 292 302 287 280 283 291 277 264 258 261 255 244 203 190 185 184 183 184 197 193 182 169 169 356 347 346 344 337 329 301 307 313 274 233 200 213 222 211 194 186 189 191 191 195
222 216 239 256 277 255 131 287 301 287 300 292 272 250 244 239 220 195 184 179 182 177 180 187 184 173 179 84 358 352 359 360 356 341 313 316 315 253 192 198 202 192 184 176 179 184 183 192 193
224 212 225 245 250 292 256 274 269 242 281 271 263 280 269 214 196 185 180 181 172 175 181 180 175 170 195 174 357 1 7 9 360 349 329 312 290 219 186 181 178 180 181 173 177 181 185 186 183
169 153 260 272 268 261 264 189 213 232 223 252 241 279 184 180 183 182 177 172 170 174 177 174 174 180 190 179 357 3 2 3 1 357 340 321 231 194 180 167 172 183 183 185 194 193 190 185 186
172 108 268 281 215 226 239 191 246 248 236 230 246 198 176 179 179 179 175 173 174 176 174 170 174 187 187 202 349 345 354 354 359 0 2 6 160 187 180 170 172 179 180 181 185 188 189 188 195
199 179 166 205 197 189 170 234 243 224 267 244 254 207 176 178 181 180 176 175 179 179 175 168 169 175 189 187 346 354 352 6 0 4 15 37 118 166 173 173 170 171 163 165 174 181 182 189 199
193 207 184 10 312 72 220 285 329 314 244 200 154 161 177 185 183 181 178 181 180 181 177 172 168 169 165 141 27 31 25 11 12 14 31 48 115 126 171 171 169 169 165 170 168 177 184 194 202
168 151 177 201 211 207 266 255 216 224 261 148 148 165 177 183 180 179 182 182 181 181 175 175 174 183 165 164 123 40 24 13 26 23 29 66 121 141 161 174 173 175 180 177 179 183 192 194 196
175 197 162 156 216 170 185 256 219 206 191 190 195 182 181 184 183 183 184 181 180 180 180 180 187 195 185 204 213 228 19 20 33 27 48 57 82 123 165 175 176 181 183 188 188 193 187 187 188
199 196 205 185 203 227 162 259 227 213 202 182 184 187 189 188 185 185 183 181 183 185 184 187 189 190 186 213 212 192 34 38 38 27 90 80 86 118 144 155 172 185 180 178 185 183 185 182 177
Wind_Speed_850mb
10 10 5 2 6 8 8 11 6 12 7 3 6 8 11 5 9 8 26 28 30 37 40 40 31 21 14 13 13 16 18 20 22 23 24 23 25 24 25 28 29 28 27 23 19 21 27 29 34
10 9 2 5 7 2 9 9 12 16 14 6 12 16 2 3 10 14 35 24 24 19 22 28 25 21 17 17 18 19 22 24 26 27 27 29 25 28 28 29 31 33 31 29 25 22 24 28 31
12 11 2 6 6 9 9 9 11 34 36 18 3 4 6 6 12 9 13 26 25 19 13 12 20 24 21 21 21 23 24 26 29 30 29 32 30 32 29 28 31 35 31 30 30 29 26 27 30
11 5 4 6 15 13 10 23 34 21 43 10 18 5 10 15 11 14 19 27 24 18 16 16 24 26 22 19 20 21 24 24 28 28 30 33 35 36 34 35 35 35 37 35 34 34 37 32 31
16 4 2 5 12 10 13 36 40 10 9 6 26 12 11 26 21 21 29 28 21 18 21 23 25 23 19 17 17 20 21 24 27 23 25 32 34 38 41 41 40 41 41 39 39 38 38 39 35
8 3 1 8 10 8 14 48 25 15 17 7 6 18 13 25 39 32 35 27 25 18 26 28 26 22 21 20 25 30 29 29 25 22 22 27 28 34 43 46 45 44 43 44 44 43 42 41 40
10 7 9 8 18 15 13 12 9 13 17 16 16 15 11 37 44 40 41 31 24 31 28 26 28 24 23 25 30 35 33 32 26 22 23 25 23 25 29 34 42 48 49 50 50 48 48 47 43
10 8 7 10 9 22 17 8 23 29 29 15 27 9 14 40 48 51 42 35 29 36 33 29 30 30 29 32 36 34 32 31 25 25 26 29 28 29 30 27 32 37 40 46 47 47 49 49 48
15 4 12 14 12 16 18 8 45 28 26 27 24 40 40 24 56 54 48 45 41 39 37 36 35 35 32 37 34 32 36 30 31 30 30 29 30 32 28 27 27 30 31 31 36 41 44 46 50
17 10 19 18 14 15 38 16 48 28 48 42 28 30 40 33 67 65 61 56 48 45 47 45 43 39 37 34 33 34 27 28 33 32 31 30 30 33 27 25 25 26 30 31 30 32 40 44 48
20 25 41 36 49 35 33 54 52 24 25 54 52 38 35 48 73 72 66 54 43 44 54 55 49 42 38 31 30 23 16 19 24 28 29 31 34 36 29 25 23 21 23 33 30 27 34 43 44
10 31 53 65 69 41 31 55 45 58 58 78 79 43 37 60 73 75 68 59 52 58 61 59 52 44 36 29 22 14 15 15 15 21 28 36 39 31 30 27 24 26 24 26 29 26 29 37 41
12 28 52 55 57 59 58 48 46 65 78 84 70 42 42 64 63 68 64 60 56 67 67 63 56 45 33 22 15 12 15 14 17 22 28 33 34 34 29 30 25 22 21 25 30 30 30 36 40
24 26 40 38 53 57 48 42 42 56 69 73 54 47 49 66 67 73 75 70 69 69 74 67 54 39 26 18 13 14 13 14 15 19 25 31 31 33 32 32 26 23 24 24 27 29 29 33 35
30 27 34 27 36 43 52 32 43 64 65 69 63 50 55 68 74 79 76 80 75 73 67 62 47 31 20 15 14 13 13 16 18 21 24 26 30 32 33 29 27 23 24 25 25 30 30 35 36
8 6 14 12 31 38 17 53 38 73 62 66 64 66 59 74 79 85 85 82 76 72 64 51 36 23 16 13 12 14 18 21 23 21 21 25 26 30 31 29 28 25 26 24 23 32 32 38 36
4 28 31 43 22 12 14 29 20 54 48 52 70 81 62 77 89 91 91 81 79 71 58 46 29 18 13 10 11 17 19 18 20 21 24 27 26 26 29 29 26 27 24 23 23 35 32 39 39
20 16 12 33 2 17 27 25 34 58 42 52 62 72 61 81 89 85 86 78 76 65 53 37 24 17 12 8 10 15 13 19 23 24 26 28 27 22 26 27 25 25 22 23 28 35 31 36 34
16 15 18 16 8 13 16 18 30 37 30 42 60 64 62 74 60 52 73 72 76 63 50 33 23 16 10 6 6 11 19 23 24 23 25 23 25 19 22 24 25 23 20 19 34 34 33 36 30
18 19 34 37 17 13 18 27 31 25 27 37 52 64 52 44 36 39 58 73 77 63 42 28 21 15 9 4 5 15 22 29 27 21 18 19 25 15 17 22 21 19 18 21 41 39 35 33 30
36 35 30 38 4 12 15 28 24 31 15 42 42 39 35 46 47 49 69 79 69 54 36 24 20 13 9 1 7 15 22 21 18 11 9 17 14 8 13 22 19 18 17 23 39 38 35 34 33
37 32 42 35 11 11 8 10 10 15 21 15 37 28 35 40 39 52 78 75 64 43 28 24 18 11 10 0 9 15 19 23 19 11 9 13 10 5 12 17 16 19 20 27 31 34 34 34 38
36 22 19 20 11 8 18 7 14 8 15 21 22 28 26 27 42 62 79 70 51 34 27 22 16 12 11 3 10 15 16 21 21 16 11 10 7 8 14 17 21 20 24 24 30 31 30 31 38
14 7 4 9 8 23 38 13 11 14 16 14 8 10 19 39 51 65 69 58 43 32 27 22 14 14 12 3 10 9 16 20 21 20 16 14 6 12 19 20 19 20 25 27 29 28 30 31 32
15 14 4 6 9 14 15 11 30 14 18 18 17 20 34 45 57 68 71 60 46 38 31 22 15 16 12 4 10 9 13 16 20 23 16 7 2 14 23 20 20 17 21 25 29 29 28 30 33
29 28 12 12 8 9 13 13 15 16 23 37 48 28 47 52 57 69 71 57 45 38 34 21 19 14 10 3 8 7 9 15 18 23 15 9 8 12 23 22 23 16 20 21 27 24 22 24 25
17 31 25 5 5 3 8 14 19 4 10 12 19 42 51 58 63 69 66 54 44 39 34 20 21 13 8 3 4 4 8 15 18 18 12 8 8 12 20 24 25 21 21 23 24 24 23 27 29
21 20 16 10 10 9 9 7 12 7 11 6 15 25 46 54 61 67 66 55 40 36 28 22 18 12 8 3 3 3 8 14 16 16 11 10 8 8 17 25 30 23 24 24 24 24 23 24 26
15 15 9 14 11 10 4 12 14 18 17 22 18 40 59 64 65 71 66 52 39 39 33 26 26 21 13 3 4 0 6 10 14 17 7 7 10 11 15 25 30 27 24 24 22 20 24 21 24
27 24 21 18 12 12 7 14 9 18 20 27 26 51 59 61 64 72 63 53 48 46 38 29 30 24 13 4 6 4 5 8 11 18 9 12 13 16 18 23 24 26 22 21 20 23 22 24 25
Wind_Direction_850mb
139 134 152 15 55 60 275 263 246 284 288 229 219 178 210 114 162 212 158 173 173 181 185 192 202 207 232 242 270 293 295 289 280 273 265 259 259 257 270 278 283 283 283 277 270 263 252 250 246
153 146 86 92 93 85 259 256 249 237 264 240 147 128 287 184 163 160 154 177 164 168 192 198 208 214 221 239 259 284 293 286 285 277 269 257 257 255 260 268 275 276 273 276 273 257 258 250 242
176 169 344 104 140 202 229 238 273 294 314 169 114 232 273 237 191 201 182 180 170 190 196 209 210 213 229 251 278 293 297 296 287 280 275 269 275 272 272 267 266 268 264 262 266 268 264 257 245
171 159 116 114 236 261 242 282 275 276 289 236 177 160 235 178 194 204 193 178 179 196 212 211 211 219 236 250 276 296 301 306 298 287 273 274 281 278 277 274 270 256 259 256 258 259 256 258 255
164 162 75 238 242 251 251 269 294 257 245 187 169 195 238 210 209 209 196 185 197 205 211 210 217 229 244 261 282 290 288 296 302 287 279 279 282 279 275 271 267 260 260 257 255 252 253 252 250
164 127 81 243 227 218 267 276 280 276 310 165 221 164 211 215 209 207 198 198 200 221 210 215 218 231 252 257 288 295 291 296 299 292 283 284 285 281 272 266 262 259 257 255 253 250 248 248 247
147 102 230 248 276 293 237 276 241 333 288 231 205 160 233 224 213 212 201 200 209 216 223 218 220 227 232 252 274 282 288 289 289 284 290 297 296 298 289 273 266 262 257 256 253 248 246 244 244
197 121 266 243 238 280 220 276 294 305 293 314 210 207 236 241 197 199 198 205 212 218 223 221 216 223 230 258 267 272 277 285 277 272 284 294 295 300 296 280 270 266 258 254 253 254 246 241 239
203 101 253 239 190 252 273 348 303 312 284 300 223 237 262 237 193 195 198 204 213 219 223 221 223 229 237 252 256 268 282 274 263 265 275 283 290 302 294 292 280 266 255 260 264 243 238 237 235
179 168 236 219 202 248 288 276 289 312 306 293 271 256 253 221 196 201 207 209 217 222 222 224 227 231 241 244 256 278 270 269 263 267 274 276 286 303 290 297 285 273 260 253 263 249 237 234 232
190 216 236 271 251 247 274 288 292 279 283 280 279 283 247 206 201 208 214 218 226 228 224 228 227 230 232 244 274 281 283 281 278 280 282 283 289 295 283 288 289 277 272 254 256 256 235 231 226
227 228 239 247 263 272 264 278 285 286 277 285 287 280 236 203 207 211 215 217 225 227 225 225 220 223 231 256 275 287 294 291 299 300 292 285 283 278 269 274 286 268 266 263 254 250 236 231 226
201 245 249 261 274 274 280 270 267 279 284 291 283 256 235 218 223 224 221 220 226 228 225 223 218 219 234 256 276 280 297 299 306 305 294 286 273 273 271 269 281 274 263 268 254 244 236 223 224
259 267 269 269 263 269 266 273 280 279 287 286 274 255 235 229 228 220 218 222 225 228 224 218 213 218 235 255 277 288 300 301 300 305 300 286 278 270 265 266 270 273 270 273 255 236 229 218 207
275 284 282 264 263 260 274 282 268 279 279 281 281 268 253 238 226 224 225 224 226 226 208 204 208 218 236 265 285 309 308 301 295 306 311 305 286 272 264 259 258 270 267 267 250 223 218 205 205
2 306 268 256 251 259 225 267 276 280 276 277 281 281 259 237 231 229 229 226 223 213 200 203 206 219 244 269 299 308 306 301 295 295 315 326 301 277 262 255 254 263 263 263 247 215 209 199 205
278 260 268 275 235 253 183 277 269 282 278 276 281 280 264 238 231 229 229 227 221 207 201 200 205 222 246 264 284 300 305 305 297 285 306 317 313 282 259 252 251 251 258 257 232 206 205 201 205
213 230 242 250 327 215 254 259 273 279 279 286 284 285 262 233 233 231 229 225 213 200 203 202 205 220 230 246 284 304 302 308 303 295 299 304 314 292 253 241 241 245 255 250 211 199 203 203 199
222 223 248 276 243 250 245 262 275 280 294 272 272 271 263 237 242 238 232 223 197 196 193 197 208 208 202 227 281 317 319 319 311 296 294 299 313 299 244 242 233 243 252 245 198 191 197 195 194
223 242 258 280 274 228 271 262 268 283 277 265 264 268 252 253 258 228 212 195 192 189 189 192 201 197 186 203 323 333 334 326 313 293 286 296 305 278 251 224 221 236 232 206 189 190 192 197 188
223 228 246 246 353 292 302 287 280 283 291 277 264 258 261 255 244 203 190 185 184 183 184 197 193 182 169 169 356 347 346 344 337 329 301 307 313 274 233 200 213 222 211 194 186 189 191 191 195
222 216 239 256 277 255 131 287 301 287 300 292 272 250 244 239 220 195 184 179 182 177 180 187 184 173 179 84 358 352 359 360 356 341 313 316 315 253 192 198 202 192 184 176 179 184 183 192 193
224 212 225 245 250 292 256 274 269 242 281 271 263 280 269 214 196 185 180 181 172 175 181 180 175 170 195 174 357 1 7 9 360 349 329 312 290 219 186 181 178 180 181 173 177 181 185 186 183
169 153 260 272 268 261 264 189 213 232 223 252 241 279 184 180 183 182 177 172 170 174 177 174 174 180 190 179 357 3 2 3 1 357 340 321 231 194 180 167 172 183 183 185 194 193 190 185 186
172 108 268 281 215 226 239 191 246 248 236 230 246 198 176 179 179 179 175 173 174 176 174 170 174 187 187 202 349 345 354 354 359 0 2 6 160 187 180 170 172 179 180 181 185 188 189 188 195
199 179 166 205 197 189 170 234 243 224 267 244 254 207 176 178 181 180 176 175 179 179 175 168 169 175 189 187 346 354 352 6 0 4 15 37 118 166 173 173 170 171 163 165 174 181 182 189 199
193 207 184 10 312 72 220 285 329 314 244 200 154 161 177 185 183 181 178 181 180 181 177 172 168 169 165 141 27 31 25 11 12 14 31 48 115 126 171 171 169 169 165 170 168 177 184 194 202
168 151 177 201 211 207 266 255 216 224 261 148 148 165 177 183 180 179 182 182 181 181 175 175 174 183 165 164 123 40 24 13 26 23 29 66 121 141 161 174 173 175 180 177 179 183 192 194 196
175 197 162 156 216 170 185 256 219 206 191 190 195 182 181 184 183 183 184 181 180 180 180 180 187 195 185 204 213 228 19 20 33 27 48 57 82 123 165 175 176 181 183 188 188 193 187 187 188
199 196 205 185 203 227 162 259 227 213 202 182 184 187 189 188 185 185 183 181 183 185 184 187 189 190 186 213 212 192 34 38 38 27 90 80 86 118 144 155 172 185 180 178 185 183 185 182 177